FW8259 Weather Reports


Display with metric or nautical units.
time (UTC)temp
F
wind
direction
speed
MPH
gust
MPH
rain 1hr
in
rain 24hr
in
rain mn
in
humidity
%
barometer
mb
20210805132105 64 334 1.0 6.0 0.00 0.00 0.00 98 1020.8
20210805131603 64 331 1.0 3.0 0.00 0.00 0.00 97 1021.1
20210805131056 64 273 3.0 5.0 0.00 0.00 0.00 97 1020.9
20210805130555 64 346 1.0 3.0 0.00 0.00 0.00 97 1020.9
20210805130054 64 269 1.0 3.0 0.00 0.00 0.00 97 1020.9
20210805125553 64 20 2.0 2.0 0.00 0.00 0.00 96 1020.9
20210805125051 64 310 4.0 6.0 0.00 0.00 0.00 95 1020.7
20210805124550 64 351 0.0 3.0 0.00 0.00 0.00 94 1020.9
20210805124049 64 285 1.0 2.0 0.00 0.00 0.00 94 1020.9
20210805123547 64 313 1.0 2.0 0.00 0.00 0.00 94 1020.9
20210805123045 64 350 2.0 3.0 0.00 0.00 0.00 94 1021.0
20210805122544 64 347 1.0 2.0 0.00 0.00 0.00 94 1020.9
20210805122044 64 336 1.0 2.0 0.00 0.00 0.00 95 1020.6
20210805121542 64 258 2.0 5.0 0.00 0.00 0.00 95 1020.9
20210805121041 64 292 2.0 3.0 0.00 0.00 0.00 95 1020.8
20210805120540 64 320 1.0 2.0 0.00 0.00 0.00 95 1020.8
20210805120036 64 11 3.0 6.0 0.00 0.00 0.00 95 1021.0
20210805115535 64 331 1.0 3.0 0.00 0.00 0.00 96 1021.3
20210805115034 63 338 2.0 2.0 0.00 0.00 0.00 96 1021.0
20210805114532 63 328 1.0 1.0 0.00 0.00 0.00 96 1021.0
20210805114031 63 0 1.0 3.0 0.00 0.00 0.00 96 1020.9
20210805113529 63 11 1.0 5.0 0.00 0.00 0.00 96 1020.7
20210805113027 63 315 1.0 3.0 0.00 0.00 0.00 96 1020.9
20210805112522 63 333 2.0 3.0 0.00 0.00 0.00 96 1021.0
20210805112021 63 76 3.0 3.0 0.00 0.00 0.00 96 1020.9
20210805111520 63 320 1.0 6.0 0.00 0.00 0.00 97 1020.9
20210805111017 63 325 2.0 5.0 0.00 0.00 0.00 97 1021.0
20210805110516 63 300 1.0 3.0 0.00 0.00 0.00 97 1020.9
20210805110013 63 312 1.0 3.0 0.00 0.00 0.00 97 1020.9
20210805105512 63 337 1.0 2.0 0.00 0.00 0.00 97 1021.1
20210805105010 63 313 1.0 2.0 0.00 0.00 0.00 96 1020.8
20210805104509 63 257 1.0 3.0 0.00 0.00 0.00 96 1021.0
20210805104008 63 359 0.0 6.0 0.00 0.00 0.00 95 1020.8
20210805103506 63 296 2.0 10.0 0.00 0.00 0.00 95 1020.8
20210805103002 63 118 2.0 3.0 0.00 0.00 0.00 94 1020.9
20210805102502 63 282 3.0 6.0 0.00 0.00 0.00 94 1020.8
20210805102001 63 258 2.0 5.0 0.00 0.00 0.00 94 1020.9
20210805101459 63 304 0.0 1.0 0.00 0.00 0.00 94 1020.9
20210805100957 64 340 1.0 2.0 0.00 0.00 0.00 94 1020.6
20210805100456 64 321 1.0 2.0 0.00 0.00 0.00 94 1020.3
20210805095955 63 311 1.0 2.0 0.00 0.00 0.00 94 1020.8
20210805095454 63 7 3.0 3.0 0.00 0.00 0.00 94 1020.5
20210805094952 63 290 1.0 1.0 0.00 0.00 0.00 94 1020.6
20210805094448 64 319 0.0 2.0 0.00 0.00 0.00 94 1020.6
20210805093947 64 316 1.0 2.0 0.00 0.00 0.00 93 1020.7
20210805093446 64 297 0.0 5.0 0.00 0.00 0.00 93 1020.6
20210805092943 64 316 1.0 6.0 0.00 0.00 0.00 93 1020.6
20210805092441 64 297 0.0 2.0 0.00 0.00 0.00 93 1020.6
20210805091939 64 294 2.0 3.0 0.00 0.00 0.00 92 1020.5
20210805091438 64 349 3.0 3.0 0.00 0.00 0.00 92 1020.4
20210805090936 64 221 1.0 2.0 0.00 0.00 0.00 92 1020.4
20210805090435 64 351 1.0 2.0 0.00 0.00 0.00 92 1020.5
20210805085933 64 319 2.0 3.0 0.00 0.00 0.00 92 1020.5
20210805085433 64 316 1.0 1.0 0.00 0.00 0.00 92 1020.4
20210805084932 64 318 1.0 3.0 0.00 0.00 0.00 92 1020.5
20210805084431 64 355 2.0 2.0 0.00 0.00 0.00 92 1020.6
20210805083930 64 277 1.0 1.0 0.00 0.00 0.00 92 1020.4
20210805083429 64 315 1.0 2.0 0.00 0.00 0.00 92 1020.5
20210805082927 64 304 2.0 3.0 0.00 0.00 0.00 92 1020.3
20210805082425 64 273 1.0 3.0 0.00 0.00 0.00 93 1020.3
20210805081924 64 16 1.0 1.0 0.00 0.00 0.00 93 1020.6
20210805081420 64 329 0.0 2.0 0.00 0.00 0.00 93 1020.5
20210805080921 64 333 1.0 5.0 0.00 0.00 0.00 93 1020.6
20210805080419 64 342 1.0 2.0 0.00 0.00 0.00 93 1020.8
20210805075918 64 336 0.0 2.0 0.00 0.00 0.00 93 1020.6
20210805075418 64 347 1.0 2.0 0.00 0.00 0.00 93 1020.5
20210805074917 64 294 1.0 2.0 0.00 0.00 0.00 93 1020.7
20210805074414 64 328 1.0 3.0 0.00 0.00 0.00 94 1020.8
20210805073913 64 324 1.0 3.0 0.00 0.00 0.00 94 1020.8
20210805073412 64 322 0.0 2.0 0.00 0.00 0.00 94 1020.8
20210805072909 64 331 1.0 5.0 0.00 0.00 0.00 93 1020.8
20210805072409 64 290 1.0 3.0 0.00 0.00 0.00 93 1021.0
20210805071907 64 326 1.0 1.0 0.00 0.00 0.00 94 1021.1
20210805071405 64 335 1.0 2.0 0.00 0.00 0.00 94 1021.1
20210805070906 64 305 1.0 2.0 0.00 0.00 0.00 94 1021.1
20210805070404 64 281 1.0 2.0 0.00 0.00 0.00 94 1020.9
20210805065904 64 305 0.0 1.0 0.00 0.00 0.00 95 1021.0
20210805065403 64 328 0.0 2.0 0.00 0.00 0.00 95 1021.0
20210805064859 64 312 1.0 1.0 0.00 0.00 0.00 95 1021.0
20210805064357 64 327 0.0 1.0 0.00 0.00 0.00 95 1021.1
20210805063853 64 303 1.0 3.0 0.00 0.00 0.00 94 1021.2
20210805063352 64 286 1.0 2.0 0.00 0.00 0.00 94 1021.3
20210805062851 64 229 1.0 2.0 0.00 0.00 0.00 93 1021.3
20210805062345 64 283 2.0 2.0 0.00 0.00 0.00 94 1021.4
20210805061844 64 321 0.0 2.0 0.00 0.00 0.00 94 1021.4
20210805061343 64 291 0.0 2.0 0.00 0.00 0.00 94 1021.4
20210805060842 64 18 1.0 5.0 0.00 0.00 0.00 93 1021.5
20210805060339 64 308 0.0 2.0 0.00 0.00 0.00 93 1021.4
20210805055836 64 313 1.0 1.0 0.00 0.00 0.00 93 1021.7
20210805055334 64 308 3.0 3.0 0.00 0.00 0.00 93 1021.7
20210805054829 64 292 0.0 2.0 0.00 0.00 0.00 93 1021.8
20210805054330 64 344 0.0 2.0 0.00 0.00 0.00 93 1021.8
20210805053828 64 312 0.0 1.0 0.00 0.00 0.00 92 1021.7
20210805053327 65 197 1.0 2.0 0.00 0.00 0.00 92 1021.8
20210805052819 65 326 0.0 1.0 0.00 0.00 0.00 93 1021.8
20210805052314 65 299 0.0 0.0 0.00 0.00 0.00 93 1021.6
20210805051811 64 78 1.0 2.0 0.00 0.00 0.00 92 1022.0
20210805051311 64 45 0.0 2.0 0.00 0.00 0.00 93 1021.9
20210805050807 64 302 0.0 1.0 0.00 0.00 0.00 93 1021.8
20210805050306 64 312 0.0 1.0 0.00 0.00 0.00 93 1021.9
20210805045803 64 313 0.0 1.0 0.00 0.00 0.00 93 1021.8
20210805045301 64 317 0.0 0.0 0.00 0.00 0.00 93 1021.8
20210805044800 65 319 0.0 0.0 0.00 0.00 0.00 93 1021.8
20210805044258 65 286 0.0 1.0 0.00 0.00 0.00 93 1021.9
20210805043757 65 286 0.0 0.0 0.00 0.00 0.00 93 1022.0
20210805043256 65 290 0.0 0.0 0.00 0.00 0.00 93 1022.2
20210805042756 65 338 0.0 2.0 0.00 0.00 0.00 93 1022.0
20210805042255 65 344 0.0 0.0 0.00 0.00 0.00 93 1021.8
20210805041754 65 318 0.0 2.0 0.00 0.00 0.00 92 1021.9
20210805041253 65 334 0.0 0.0 0.00 0.00 0.00 92 1022.0
20210805040748 65 312 0.0 0.0 0.00 0.00 0.00 93 1022.1
20210805040246 65 311 0.0 0.0 0.00 0.00 0.00 92 1022.1
20210805035744 65 311 0.0 1.0 0.00 0.00 0.00 92 1022.0
20210805035243 65 311 0.0 0.0 0.00 0.00 0.00 92 1022.2
20210805034741 65 312 0.0 0.0 0.00 0.00 0.00 92 1022.3
20210805034239 65 297 0.0 1.0 0.00 0.00 0.00 92 1022.3
20210805033739 65 296 0.0 0.0 0.00 0.00 0.00 91 1022.2
20210805033237 65 290 0.0 0.0 0.00 0.00 0.00 91 1022.1
20210805032734 65 288 0.0 0.0 0.00 0.00 0.00 91 1022.2
20210805032235 65 288 0.0 0.0 0.00 0.00 0.00 91 1022.2
20210805031734 65 279 0.0 1.0 0.00 0.00 0.00 90 1022.5
20210805031232 65 282 0.0 2.0 0.00 0.00 0.00 90 1022.3
20210805030730 66 284 0.0 0.0 0.00 0.00 0.00 90 1022.5
20210805030226 66 284 0.0 0.0 0.00 0.00 0.00 90 1022.3
20210805025725 66 284 0.0 0.0 0.00 0.00 0.00 90 1022.4
20210805025224 66 284 0.0 0.0 0.00 0.00 0.00 89 1022.7
20210805024723 66 284 0.0 0.0 0.00 0.00 0.00 89 1022.7
20210805024220 66 284 0.0 1.0 0.00 0.00 0.00 89 1022.5
20210805023718 66 284 0.0 0.0 0.00 0.00 0.00 89 1023.0
20210805023218 66 284 0.0 0.0 0.00 0.00 0.00 89 1022.8
20210805022717 65 284 0.0 0.0 0.00 0.00 0.00 88 1022.6
20210805022214 65 284 0.0 0.0 0.00 0.00 0.00 90 1022.8
20210805021713 65 284 0.0 1.0 0.00 0.00 0.00 91 1022.8
20210805021211 65 284 0.0 0.0 0.00 0.00 0.00 90 1023.0
20210805020710 65 284 0.0 0.0 0.00 0.00 0.00 90 1022.7
20210805020207 65 284 0.0 0.0 0.00 0.00 0.00 90 1023.0
20210805015706 65 284 0.0 0.0 0.00 0.00 0.00 90 1022.8
20210805015206 65 284 0.0 0.0 0.00 0.00 0.00 91 1023.0
20210805014705 65 284 0.0 1.0 0.00 0.00 0.00 90 1022.6
20210805014203 65 284 0.0 1.0 0.00 0.00 0.00 89 1022.7
20210805013702 65 284 0.0 0.0 0.00 0.00 0.00 90 1022.7
20210805013159 65 284 0.0 0.0 0.00 0.00 0.00 90 1022.8
20210805012658 65 284 0.0 0.0 0.00 0.00 0.00 90 1022.7
20210805012157 65 284 0.0 0.0 0.00 0.00 0.00 90 1022.6
20210805011656 65 284 0.0 0.0 0.00 0.00 0.00 90 1022.7
20210805011155 65 284 0.0 1.0 0.00 0.00 0.00 89 1022.8
20210805010653 65 284 0.0 0.0 0.00 0.00 0.00 90 1022.7
20210805010152 65 284 0.0 1.0 0.00 0.00 0.00 90 1022.7
20210805005647 65 284 0.0 0.0 0.00 0.00 0.00 90 1022.5
20210805005145 65 284 0.0 1.0 0.00 0.00 0.00 91 1022.5
20210805004639 65 284 0.0 1.0 0.00 0.00 0.00 90 1022.5
20210805004139 65 284 0.0 1.0 0.00 0.00 0.00 91 1022.7
20210805003635 65 284 1.0 1.0 0.00 0.00 0.00 92 1022.4
20210805003133 65 284 0.0 1.0 0.00 0.00 0.00 92 1022.5
20210805002631 65 284 0.0 1.0 0.00 0.00 0.00 92 1022.5
20210805002130 66 284 0.0 0.0 0.00 0.00 0.00 92 1022.3
20210805001629 66 284 0.0 0.0 0.00 0.00 0.00 91 1022.5
20210805001129 66 284 0.0 0.0 0.00 0.00 0.00 91 1022.5
20210805000628 66 284 0.0 1.0 0.00 0.00 0.00 91 1022.5
20210805000128 66 284 0.0 0.0 0.00 0.00 0.00 91 1022.2
20210804235626 66 284 0.0 0.0 0.00 0.00 0.00 91 1022.3
20210804235125 66 284 0.0 0.0 0.00 0.00 0.00 90 1022.4
20210804234622 66 284 0.0 0.0 0.00 0.00 0.00 90 1022.4
20210804234119 67 283 0.0 1.0 0.00 0.00 0.00 89 1022.3
20210804233616 67 284 0.0 0.0 0.00 0.00 0.00 89 1021.9
20210804233116 67 284 0.0 0.0 0.00 0.00 0.00 89 1022.1
20210804232614 67 284 0.0 0.0 0.00 0.00 0.00 89 1022.4
20210804232113 67 284 0.0 0.0 0.00 0.00 0.00 88 1022.1
20210804231613 68 284 0.0 1.0 0.00 0.00 0.00 88 1022.0
20210804231112 68 283 0.0 0.0 0.00 0.00 0.00 88 1022.1
20210804230611 68 283 0.0 0.0 0.00 0.00 0.00 86 1022.0
20210804230106 69 283 0.0 0.0 0.00 0.00 0.00 85 1022.2
20210804225604 69 283 0.0 0.0 0.00 0.00 0.00 83 1022.2
20210804225102 69 282 0.0 0.0 0.00 0.00 0.00 81 1022.4
20210804224600 69 328 0.0 1.0 0.00 0.00 0.00 81 1022.1
20210804224058 69 291 0.0 0.0 0.00 0.00 0.00 80 1022.4
20210804223557 70 11 1.0 1.0 0.00 0.00 0.00 79 1022.3
20210804223054 70 334 0.0 1.0 0.00 0.00 0.00 81 1022.1
20210804222554 70 294 0.0 2.0 0.00 0.00 0.00 80 1022.0
20210804222051 70 339 0.0 1.0 0.00 0.00 0.00 79 1021.9
20210804221547 70 313 1.0 2.0 0.00 0.00 0.00 79 1022.1
20210804221046 71 39 2.0 2.0 0.00 0.00 0.00 78 1022.2
20210804220545 71 298 0.0 2.0 0.00 0.00 0.00 78 1022.6
20210804220044 71 349 0.0 1.0 0.00 0.00 0.00 79 1022.5
20210804215541 71 317 0.0 1.0 0.00 0.00 0.00 78 1022.2
20210804215041 71 48 1.0 2.0 0.00 0.00 0.00 77 1022.4
20210804214541 71 326 0.0 1.0 0.00 0.00 0.00 77 1022.3
20210804214040 71 18 0.0 1.0 0.00 0.00 0.00 76 1022.3
20210804213538 71 349 0.0 1.0 0.00 0.00 0.00 79 1022.4
20210804213037 71 332 0.0 1.0 0.00 0.00 0.00 78 1022.6
20210804212534 70 337 0.0 1.0 0.00 0.00 0.00 82 1022.4
20210804212033 70 321 0.0 1.0 0.00 0.00 0.00 82 1022.6
20210804211531 70 301 0.0 0.0 0.00 0.00 0.00 80 1022.4
20210804211031 70 297 0.0 0.0 0.00 0.00 0.00 79 1022.6
20210804210530 71 296 0.0 1.0 0.00 0.00 0.00 78 1023.0
20210804210030 72 290 0.0 0.0 0.00 0.00 0.00 75 1022.3
20210804205529 72 323 0.0 0.0 0.00 0.00 0.00 72 1022.3
20210804205027 72 284 1.0 1.0 0.00 0.00 0.00 71 1022.4
20210804204525 72 295 0.0 1.0 0.00 0.00 0.00 73 1022.4
20210804204024 73 328 0.0 1.0 0.00 0.00 0.00 73 1022.3
20210804203520 73 311 0.0 1.0 0.00 0.00 0.00 73 1022.5
20210804203018 72 301 0.0 0.0 0.00 0.00 0.00 80 1022.6
20210804202518 71 301 0.0 0.0 0.00 0.00 0.00 78 1022.8
20210804202017 71 300 0.0 0.0 0.00 0.00 0.00 78 1022.7
20210804201516 71 299 0.0 0.0 0.00 0.00 0.00 77 1022.8
20210804201015 71 299 0.0 0.0 0.00 0.00 0.00 75 1023.2
20210804200513 71 299 0.0 0.0 0.00 0.00 0.00 75 1023.0
20210804200011 71 288 0.0 1.0 0.00 0.00 0.00 74 1023.0
20210804195509 72 309 0.0 0.0 0.00 0.00 0.00 77 1023.1
20210804195007 73 338 0.0 1.0 0.00 0.00 0.00 75 1022.8
20210804194505 73 283 0.0 1.0 0.00 0.00 0.00 69 1022.7
20210804193957 72 296 0.0 1.0 0.00 0.00 0.00 75 1023.3
20210804193455 72 301 0.0 1.0 0.00 0.00 0.00 73 1023.0
20210804192955 72 303 1.0 1.0 0.00 0.00 0.00 70 1022.7
20210804192454 73 290 1.0 1.0 0.00 0.00 0.00 73 1023.2
20210804191953 73 296 0.0 1.0 0.00 0.00 0.00 72 1023.2
20210804191452 73 321 0.0 1.0 0.00 0.00 0.00 72 1023.2
20210804190951 72 340 0.0 2.0 0.00 0.00 0.00 72 1023.3
20210804190450 72 229 3.0 3.0 0.00 0.00 0.00 70 1023.4
20210804185950 73 270 0.0 1.0 0.00 0.00 0.00 69 1023.3
20210804185448 73 276 0.0 1.0 0.00 0.00 0.00 73 1023.1
20210804184947 72 284 1.0 2.0 0.00 0.00 0.00 69 1023.2
20210804184445 73 241 1.0 2.0 0.00 0.00 0.00 70 1023.2
20210804183944 73 344 1.0 1.0 0.00 0.00 0.00 74 1023.3
20210804183443 72 328 1.0 2.0 0.00 0.00 0.00 71 1023.2
20210804182942 72 247 1.0 2.0 0.00 0.00 0.00 69 1023.3
20210804182441 73 244 1.0 1.0 0.00 0.00 0.00 69 1023.2
20210804181940 73 260 2.0 5.0 0.00 0.00 0.00 69 1023.1
20210804181438 72 84 2.0 3.0 0.00 0.00 0.00 71 1023.0
20210804180936 72 294 1.0 2.0 0.00 0.00 0.00 67 1023.2
20210804180434 73 292 0.0 2.0 0.00 0.00 0.00 68 1023.0
20210804175933 73 71 0.0 1.0 0.00 0.00 0.00 69 1023.1
20210804175429 73 272 1.0 2.0 0.00 0.00 0.00 64 1023.1
20210804174929 73 8 1.0 2.0 0.00 0.00 0.00 67 1023.4
20210804174427 75 296 0.0 1.0 0.00 0.00 0.00 65 1022.7
20210804173928 74 285 0.0 1.0 0.00 0.00 0.00 64 1023.2
20210804173426 74 279 1.0 2.0 0.00 0.00 0.00 64 1023.0
20210804172925 73 19 1.0 1.0 0.00 0.00 0.00 66 1023.0
20210804172425 74 36 1.0 2.0 0.00 0.00 0.00 69 1023.0
20210804171924 73 282 1.0 1.0 0.00 0.00 0.00 65 1023.1
20210804171424 73 333 2.0 2.0 0.00 0.00 0.00 68 1023.0
20210804170922 72 209 1.0 2.0 0.00 0.00 0.00 69 1022.8
20210804170420 72 89 0.0 2.0 0.00 0.00 0.00 69 1022.6
20210804165918 72 99 3.0 3.0 0.00 0.00 0.00 69 1023.0
20210804165416 72 325 0.0 2.0 0.00 0.00 0.00 74 1023.0
20210804164914 71 100 1.0 3.0 0.00 0.00 0.00 70 1022.8
20210804164412 71 281 1.0 2.0 0.00 0.00 0.00 78 1022.8
20210804163909 71 267 1.0 3.0 0.00 0.00 0.00 74 1023.1
20210804163407 71 300 1.0 2.0 0.00 0.00 0.00 72 1023.0
20210804162904 71 109 0.0 3.0 0.00 0.00 0.00 73 1022.8
20210804162404 70 328 0.0 1.0 0.00 0.00 0.00 72 1023.1
20210804161903 71 20 1.0 2.0 0.00 0.00 0.00 71 1023.2
20210804161402 71 303 0.0 1.0 0.00 0.00 0.00 73 1023.2
20210804160900 70 154 0.0 1.0 0.00 0.00 0.00 75 1023.4
20210804160359 71 135 3.0 3.0 0.00 0.00 0.00 71 1023.3
20210804155857 71 303 0.0 1.0 0.00 0.00 0.00 74 1023.4
20210804155353 71 337 1.0 2.0 0.00 0.00 0.00 75 1023.4
20210804154852 71 297 1.0 1.0 0.00 0.00 0.00 77 1023.1
20210804154350 70 327 1.0 1.0 0.00 0.00 0.00 80 1023.1
20210804153851 71 270 1.0 2.0 0.00 0.00 0.00 75 1023.4
20210804153350 70 304 1.0 1.0 0.00 0.00 0.00 76 1023.3
20210804152849 70 324 0.0 1.0 0.00 0.00 0.00 78 1023.3
20210804152348 70 64 0.0 1.0 0.00 0.00 0.00 79 1023.4
20210804151847 70 324 0.0 1.0 0.00 0.00 0.00 78 1023.4
20210804151345 70 316 0.0 1.0 0.00 0.00 0.00 79 1023.4
20210804150843 69 350 1.0 1.0 0.00 0.00 0.00 80 1023.3
20210804150343 69 117 0.0 1.0 0.00 0.00 0.00 80 1023.2
20210804145840 69 34 1.0 1.0 0.00 0.00 0.00 80 1023.1
20210804145340 69 296 0.0 1.0 0.00 0.00 0.00 81 1023.3
20210804144839 69 327 0.0 2.0 0.00 0.00 0.00 79 1023.2
20210804144337 69 311 0.0 1.0 0.00 0.00 0.00 78 1023.2
20210804143835 69 325 0.0 1.0 0.00 0.00 0.00 80 1023.1
20210804143333 68 312 0.0 1.0 0.00 0.00 0.00 80 1023.2
20210804142832 68 60 2.0 2.0 0.00 0.00 0.00 79 1022.8
20210804142329 68 139 1.0 1.0 0.00 0.00 0.00 79 1022.8
20210804141829 69 335 0.0 2.0 0.00 0.00 0.00 81 1023.0
20210804141327 68 8 1.0 2.0 0.00 0.00 0.00 79 1022.8
20210804140825 68 88 0.0 1.0 0.00 0.00 0.00 78 1022.8
20210804140324 68 297 1.0 2.0 0.00 0.00 0.00 80 1022.7
20210804135822 68 3 1.0 1.0 0.00 0.00 0.00 80 1022.6
20210804135322 67 306 0.0 1.0 0.00 0.00 0.00 83 1022.8
20210804134818 68 292 0.0 2.0 0.00 0.00 0.00 80 1022.8
20210804134316 68 291 0.0 1.0 0.00 0.00 0.00 81 1023.0
20210804133815 67 40 1.0 1.0 0.00 0.00 0.00 80 1023.0
20210804133314 67 297 0.0 0.0 0.00 0.00 0.00 81 1022.8
20210804132813 66 57 1.0 1.0 0.00 0.00 0.00 81 1022.7